Regional Weather Roundup
Issued by NWS Green Bay, WI

Home | Current Version | Previous Version | Graphics & Text | Print | Product List | Glossary Off
Versions: 1 2 3 4 5 6 7 8 9 10 11 12 13 14 15 16 17 18 19 20 21 22 23 24 25 26 27 28 29 30 31 32 33 34 35 36 37 38 39 40 41 42 43 44 45 46 47 48 49 50

000
ASUS43 KGRB 290259
RWRGRB

NORTH-CENTRAL AND NORTHEAST WISCONSIN REGIONAL WEATHER ROUNDUP
NATIONAL WEATHER SERVICE GREEN BAY WI
1000 PM CDT THU AUG 28 2014

WIZ005-009-010>012-018-019-290400-
NORTH CENTRAL WISCONSIN

CITY           SKY/WX    TMP DP  RH WIND       PRES   REMARKS
IRONWOOD       NOT AVBL
MANITOWISH WTR NOT AVBL
ARBOR VITAE    NOT AVBL
EAGLE RIVER    NOT AVBL
LAND O LAKES   NOT AVBL
RHINELANDER    CLOUDY    62  59  90 S7        30.06F
PHILLIPS       NOT AVBL
ANTIGO         NOT AVBL
TOMAHAWK       NOT AVBL
MERRILL        NOT AVBL
$$

WIZ013-073-290400-
NORTHEAST WISCONSIN

CITY           SKY/WX    TMP DP  RH WIND       PRES   REMARKS
IRON MOUNTAIN  CLOUDY    61  56  83 SE7       30.06F
MARINETTE      CLOUDY    63  54  72 S5        30.07F
$$

WIZ017-030-035>037-045-290400-
CENTRAL WISCONSIN

CITY           SKY/WX    TMP DP  RH WIND       PRES   REMARKS
MEDFORD        NOT AVBL
WAUSAU         CLOUDY    62  59  90 SE8       30.03F
MOSINEE        CLOUDY    61  59  94 SE6       30.06F
MARSHFIELD     LGT RAIN  62  59  90 SE8       30.03S
WISC RAPIDS    LGT RAIN  61  58  90 SE8       30.04F
STEVENS POINT  NOT AVBL
WAUPACA        NOT AVBL
SHAWANO        NOT AVBL
CLINTONVILLE   NOT AVBL
$$

WIZ038-039-048-051-290400-
FOX VALLEY

CITY           SKY/WX    TMP DP  RH WIND       PRES   REMARKS
NWS GREEN BAY  CLOUDY    63  56  78 SE6       30.07F
APPLETON       CLOUDY    64  55  72 VRB5      30.07F
OSHKOSH        CLOUDY    65  54  67 SE8       30.05F
FOND DU LAC    CLOUDY    63  54  72 SE5       30.05F
$$

WIZ022-050-052-290400-
EAST CENTRAL WISCONSIN

CITY           SKY/WX    TMP DP  RH WIND       PRES   REMARKS
STURGEON BAY   CLOUDY    63  54  72 SE7       30.08F
MANITOWOC      NOT AVBL
SHEBOYGAN      CLOUDY    63  57  81 E5        30.07F
$$

LMZ563-521-522-541>543-290400-
LAKESHORE

STATION/POSITION TIME  TEMP    WIND        PRES    VSBY  WAVE
                       AIR SEA DIR/SP/G                  HT/PER
                 (UTC) (F)     (DEG/KT/KT) (MB)    (MI)  (FT/S)
SHEBOYGAN LKSHOR 0200   66 68   80/  9/ 10 1018.8F
KEWAUNEE LKSHORE 0200   64     130/  6/  9 1017.8F
ALGOMA MARINA    0200          160/  9/ 10   N/A
NORTHPORT PIER   0200   65     140/  9/ 11 1019.0S
N MID LAKE BUOY  0200   64 66  130/  8/ 10 1019.3F         0
S GREEN BAY BUOY 0200   65     VRB  8/ 10  1019.4F
SISTER BAY LKSHO 0200   61     140/  7/  9   N/A
CHAMBERS ISLAND  0200   63     130/  3/  6 1019.3S
MENOMINEE LKSHOR 0200   66     140/  8/ 10 1019.1F
$$



USA.gov is the U.S. government's official web portal to all federal, state and local government web resources and services.